Total_Precipitation_Accumulation
0.30 0.19 0.21 0.17 0.10 0.09 0.09 0.12 0.16 0.17 0.17 0.18 0.20 0.20 0.20 0.19 0.17 0.16 0.15 0.15 0.16 0.21 0.25 0.31 0.34 0.40 0.45 0.43 0.32 0.22 0.18 0.16 0.13 0.13 0.14 0.18 0.23 0.26 0.33 0.29 0.31 0.29 0.25
0.20 0.16 0.21 0.16 0.12 0.11 0.11 0.12 0.14 0.14 0.15 0.15 0.14 0.14 0.15 0.16 0.16 0.17 0.16 0.18 0.21 0.26 0.25 0.26 0.30 0.33 0.35 0.30 0.23 0.16 0.13 0.13 0.15 0.21 0.27 0.34 0.44 0.45 0.52 0.46 0.45 0.45 0.28
0.18 0.19 0.18 0.16 0.13 0.12 0.12 0.12 0.13 0.14 0.17 0.18 0.17 0.15 0.13 0.13 0.13 0.13 0.15 0.19 0.26 0.30 0.29 0.26 0.25 0.25 0.26 0.21 0.16 0.13 0.13 0.18 0.25 0.36 0.59 0.68 0.68 0.68 0.66 0.58 0.53 0.41 0.27
0.19 0.23 0.17 0.15 0.14 0.14 0.15 0.17 0.18 0.19 0.20 0.23 0.22 0.20 0.17 0.14 0.13 0.15 0.16 0.19 0.25 0.29 0.27 0.23 0.20 0.19 0.17 0.13 0.12 0.12 0.17 0.27 0.38 0.55 0.91 0.84 0.75 0.76 0.65 0.59 0.58 0.52 0.41
0.24 0.21 0.17 0.12 0.13 0.17 0.19 0.22 0.24 0.24 0.27 0.28 0.31 0.30 0.25 0.18 0.16 0.19 0.22 0.22 0.25 0.30 0.31 0.26 0.19 0.14 0.12 0.12 0.13 0.14 0.18 0.28 0.50 0.81 1.17 1.28 1.21 1.03 0.75 0.62 0.61 0.60 0.57
0.30 0.29 0.22 0.20 0.19 0.22 0.22 0.24 0.29 0.31 0.33 0.38 0.40 0.37 0.30 0.23 0.21 0.24 0.28 0.30 0.31 0.35 0.39 0.33 0.29 0.20 0.16 0.14 0.15 0.18 0.25 0.41 0.56 0.87 1.22 1.49 1.41 1.24 0.94 0.75 0.63 0.66 0.65
0.40 0.39 0.33 0.28 0.25 0.25 0.23 0.23 0.27 0.31 0.34 0.41 0.46 0.41 0.34 0.27 0.25 0.28 0.35 0.36 0.39 0.41 0.40 0.35 0.31 0.24 0.22 0.21 0.22 0.28 0.40 0.58 0.67 0.94 1.23 1.29 1.34 1.25 1.07 0.96 0.76 0.62 0.61
0.43 0.40 0.33 0.30 0.27 0.32 0.35 0.31 0.30 0.33 0.37 0.44 0.49 0.46 0.38 0.32 0.34 0.40 0.41 0.45 0.47 0.43 0.38 0.35 0.32 0.28 0.29 0.33 0.35 0.40 0.50 0.58 0.57 0.81 1.07 1.21 1.09 1.06 1.15 1.13 0.92 0.73 0.61
0.50 0.47 0.43 0.44 0.40 0.38 0.36 0.33 0.35 0.34 0.38 0.43 0.49 0.52 0.46 0.39 0.47 0.53 0.52 0.54 0.56 0.49 0.42 0.40 0.39 0.34 0.37 0.43 0.41 0.42 0.48 0.53 0.50 0.73 0.96 1.29 1.06 1.15 1.28 1.10 0.93 0.82 0.71
1.01 1.05 0.84 0.78 0.67 0.51 0.41 0.38 0.39 0.39 0.41 0.46 0.46 0.48 0.47 0.46 0.50 0.54 0.51 0.53 0.52 0.46 0.42 0.42 0.42 0.38 0.34 0.34 0.33 0.36 0.41 0.37 0.38 0.59 1.05 1.15 1.15 1.37 1.45 1.23 1.04 0.91 0.84
1.53 1.62 1.28 0.93 0.77 0.76 0.61 0.48 0.52 0.45 0.45 0.46 0.45 0.48 0.54 0.70 0.82 0.82 0.62 0.61 0.58 0.53 0.50 0.48 0.43 0.37 0.32 0.31 0.38 0.45 0.43 0.33 0.51 0.76 1.02 1.20 1.32 1.60 1.67 1.43 1.20 1.06 0.95
1.85 1.78 1.61 1.17 1.20 1.33 1.02 0.84 0.75 0.63 0.61 0.58 0.68 0.66 0.79 1.15 1.25 1.00 0.97 0.82 0.77 0.69 0.63 0.61 0.59 0.51 0.42 0.43 0.54 0.53 0.41 0.43 0.72 0.93 1.11 1.39 1.61 1.79 1.72 1.48 1.30 1.19 1.12
2.04 1.66 1.39 1.28 1.20 1.34 1.32 1.19 1.08 1.04 1.12 1.13 1.14 1.12 1.30 1.40 1.23 1.03 1.19 1.07 0.98 0.88 0.90 0.95 0.79 0.65 0.67 0.75 0.80 0.71 0.64 0.71 0.88 0.99 1.22 1.54 1.72 1.87 1.90 1.67 1.45 1.34 1.31
1.90 1.70 1.58 1.56 1.46 1.48 1.69 1.68 1.59 1.56 1.48 1.37 1.37 1.32 1.54 1.69 1.61 1.61 1.64 1.56 1.61 1.56 1.50 1.34 1.16 0.99 0.90 0.87 0.84 0.87 0.93 0.94 1.05 1.18 1.48 1.64 1.68 1.73 1.82 1.79 1.70 1.60 1.50
2.10 1.87 1.74 1.79 1.78 1.72 1.97 2.10 1.94 1.91 1.74 1.59 1.56 1.60 1.71 1.78 1.84 2.00 2.00 2.07 1.99 1.88 1.68 1.53 1.31 1.29 1.19 1.08 1.02 0.98 1.07 1.21 1.31 1.48 1.55 1.66 1.63 1.60 1.77 1.92 1.93 1.88 1.75
2.44 2.13 1.88 1.87 1.78 1.75 1.89 2.04 2.06 1.98 2.03 1.99 1.92 1.86 1.86 1.98 2.16 2.20 2.22 2.18 2.05 1.87 1.83 1.79 1.64 1.61 1.51 1.41 1.27 1.26 1.27 1.29 1.43 1.54 1.63 1.77 1.53 1.44 1.67 1.93 2.06 2.09 2.08
2.64 2.55 2.27 2.14 2.08 2.08 2.04 2.00 1.97 2.03 2.24 2.19 2.23 2.25 2.08 2.01 2.10 2.19 2.32 2.27 2.15 2.05 2.01 1.91 1.90 1.86 1.73 1.64 1.60 1.57 1.52 1.47 1.43 1.48 1.67 1.84 1.79 1.72 1.77 1.84 1.95 2.05 2.15
3.12 3.00 2.48 2.13 2.25 2.37 2.45 2.41 2.44 2.44 2.56 2.48 2.31 2.39 2.33 2.32 2.25 2.27 2.27 2.18 2.10 2.04 2.19 2.25 2.21 2.16 2.03 1.94 1.91 1.75 1.70 1.69 1.57 1.55 1.62 1.71 1.95 2.04 2.01 1.86 1.82 1.91 2.07
3.73 3.44 2.74 2.43 2.48 2.59 2.65 2.82 3.01 3.08 3.05 2.93 2.76 2.73 2.61 2.67 2.62 2.60 2.65 2.55 2.41 2.43 2.43 2.26 2.31 2.37 2.39 2.26 1.97 1.84 1.71 1.72 1.68 1.60 1.63 1.61 1.78 2.00 2.04 1.96 1.89 1.88 2.01
3.91 3.70 3.15 2.88 2.99 2.93 2.88 3.07 3.23 3.28 3.27 3.31 3.33 3.30 3.11 3.00 3.03 3.11 3.16 3.08 2.87 2.81 2.80 2.81 2.73 2.49 2.33 2.22 1.98 1.95 1.85 1.73 1.69 1.60 1.53 1.56 1.61 1.58 1.69 1.73 1.83 1.82 1.85
3.18 3.16 3.22 3.19 3.23 3.26 3.18 3.21 3.43 3.61 3.65 3.59 3.68 3.72 3.57 3.47 3.49 3.63 3.64 3.60 3.36 3.16 3.00 2.92 2.83 2.62 2.36 2.16 2.15 2.08 1.89 1.70 1.68 1.60 1.53 1.53 1.42 1.38 1.49 1.63 1.61 1.56 1.59
2.95 3.06 3.17 3.11 3.30 3.53 3.83 4.21 4.51 4.71 4.66 4.49 4.42 4.31 4.14 4.02 3.93 3.86 3.86 3.68 3.43 3.27 3.06 2.87 2.78 2.64 2.43 2.29 2.25 2.31 2.06 1.88 1.64 1.48 1.51 1.46 1.37 1.32 1.30 1.30 1.39 1.41 1.40
2.59 2.81 2.96 3.20 3.63 4.03 4.52 5.22 5.63 5.51 5.17 5.00 4.73 4.62 4.39 4.11 4.01 3.99 3.74 3.54 3.33 3.13 3.00 2.81 2.71 2.64 2.44 2.33 2.28 2.39 2.22 2.02 1.79 1.65 1.49 1.38 1.36 1.36 1.31 1.25 1.27 1.37 1.39
2.30 2.68 3.00 3.40 3.95 4.53 4.97 5.42 5.71 5.70 5.47 5.24 4.82 4.44 4.06 3.71 3.48 3.35 3.24 3.03 2.91 2.78 2.65 2.50 2.47 2.42 2.32 2.16 2.12 1.99 1.91 1.81 1.76 1.65 1.52 1.38 1.34 1.35 1.31 1.24 1.24 1.30 1.36
2.15 2.56 2.93 3.32 3.94 4.48 4.97 5.31 5.53 5.59 5.46 5.13 4.51 3.91 3.52 3.20 2.94 2.69 2.48 2.38 2.36 2.28 2.10 1.93 1.89 1.87 1.84 1.79 1.79 1.71 1.65 1.60 1.58 1.52 1.49 1.43 1.36 1.26 1.18 1.16 1.15 1.18 1.23
1.93 2.41 2.74 3.05 3.70 4.35 4.90 5.27 5.51 5.53 5.25 4.66 4.03 3.49 3.15 2.89 2.62 2.38 2.22 2.05 1.95 1.83 1.68 1.51 1.40 1.41 1.47 1.50 1.52 1.50 1.41 1.38 1.38 1.40 1.36 1.31 1.26 1.21 1.14 1.09 1.08 1.08 1.11